Погода в Троицкой

Россия / Республика Ингушетия     43°18′21″N   44°59′21″E
темп.,
°C
ветер,
м/с
пор.,
м/с
влажн.,
%
обл.,
%
осадки,
мм/ч
давл.,
гПа
погр.,
м
23 мая, пн
пн2300:00+13зюз33640 0.0 100245
03:00+11зюз337322 0.0 100450
06:00+13з247525 0.0 1003143
09:00+17ссв436743 0.0 1003925
12:00+16всв457676 0.4 1003932
15:00+15ююз2287100 1.3 1002128
18:00+12с4797100 7.8 1003442
21:00+11сз5997100 22.6 1007632
24 мая, вт
вт2400:00+10з3796100 2.5 1007383
03:00+10зюз3795100 4.4 1007289
06:00+10зюз3795100 2.4 1009405
09:00+10з3795100 5.2 1010510
12:00+10зюз3794100 2.5 1011417
15:00+11зюз4691100 3.7 1011435
18:00+11юз249197 1.6 1013206
21:00+10з2290100 1.7 101453
25 мая, ср
ср2500:00+10з2392100 0.0 101591
03:00+9з2695100 0.3 1016338
06:00+9зюз3794100 0.9 1018440
09:00+10зюз4792100 1.8 1020408
12:00+11ю238778 0.4 1020220
15:00+16ссв226120 0.7 10191229
18:00+14сз238364 1.3 1020217
21:00+10зюз228787 2.7 102221
26 мая, чт
чт2600:00+10зюз3390100 0.0 102253
03:00+10зюз3494100 0.1 1022101
06:00+10зюз2594100 0.3 1023176
09:00+12ююз238453 0.9 1024362
12:00+17ссв335957 0.5 10221387
15:00+18св225557 0.9 10221558
18:00+16вюв23685 0.0 1021196
21:00+10ююв118641 0.0 102212
27 мая, пт
пт2700:00+10ююз228573 0.0 102116
03:00+9юз2277100 0.0 102117
06:00+12ююз227180 0.0 102150
09:00+18всв22554 0.0 1020650
12:00+21всв32511 0.0 10191131
15:00+22всв22510 0.0 10181212
18:00+20в22670 0.0 101862
21:00+14ююз21790 0.0 101914